| |
Missouri Department of Transportation

Social Media Facebook Twitter Flickr Blog YouTube RSS

Current METAR Information for All MoDOT Locations 
AWOS Home - General Info for all Airports
Current AWOS for all Airports - Current METAR for all Airports
Glossary - Disclaimer - Other Links


Automated Weather Observation System
Date: 01-26-2015
 
Location Current METAR Record
HANNIBAL METAR KHAE 270317Z AUTO 29004KT 10SM SCT040 SCT046 OVC050 06/01 A2991 RMK AO2
HARRISONVILLE  No current data available
LEBANON METAR KLBO 270315Z AUTO 29006KT 10SM CLR 08/02 A2997 RMK AO2
MALDEN  No current data available
MARSHALL METAR KMHL 270440Z AUTO 29005KT 10SM CLR 08/02 A2999 RMK AO2
MARYVILLE  No current data available
MEXICO  No current data available
MOBERLY  No current data available
NEVADA  No current data available
PIEDMONT  No current data available
SIKESTON  No current data available
SULLIVAN METAR KUUV 270321Z AUTO 28006KT 10SM CLR 06/01 A2996 RMK AO2
WARSAW  No current data available
About Us
How Do I...
Contact Us
Missouri Department of Transportation
Central Office
105 W. Capitol Avenue
Jefferson City, MO 65102
1-888-ASK-MODOT (275-6636)
1-866-831-6277 (Motor Carrier Services)
Drivers License Offices
horz_bar
| | |
Missouri State Government
© 2013 Missouri Department of Transportation. All Rights Reserved.   Privacy Policy.
 
 
 
 
RSS FeedYoutubeBlogFlickrTwitter Facebook